Year,Month,Day,Hour,Minute,Value (Times are PST for temperature in C)
2010,08,21,00,00,12.40
2010,08,21,00,01,12.30
2010,08,21,00,02,12.30
2010,08,21,00,03,12.30
2010,08,21,00,04,12.30
2010,08,21,00,05,12.30
2010,08,21,00,06,12.20
2010,08,21,00,07,12.20
2010,08,21,00,08,12.20
2010,08,21,00,09,12.10
2010,08,21,00,10,12.10
2010,08,21,00,11,12.10
2010,08,21,00,12,12.10
2010,08,21,00,13,12.10
2010,08,21,00,14,12.10
2010,08,21,00,15,12.10
2010,08,21,00,16,12.00
2010,08,21,00,17,12.00
2010,08,21,00,18,12.00
2010,08,21,00,19,12.00
2010,08,21,00,20,12.00
2010,08,21,00,21,12.00
2010,08,21,00,22,12.00
2010,08,21,00,23,12.00
2010,08,21,00,24,12.00
2010,08,21,00,25,12.00
2010,08,21,00,26,12.00
2010,08,21,00,27,12.00
2010,08,21,00,28,12.00
2010,08,21,00,29,12.00
2010,08,21,00,30,12.00
2010,08,21,00,31,12.00
2010,08,21,00,32,12.00
2010,08,21,00,33,12.00
2010,08,21,00,34,12.00
2010,08,21,00,35,12.00
2010,08,21,00,36,12.00
2010,08,21,00,37,11.90
2010,08,21,00,38,11.90
2010,08,21,00,39,11.90
2010,08,21,00,40,11.90
2010,08,21,00,41,11.90
2010,08,21,00,42,11.90
2010,08,21,00,43,11.90
2010,08,21,00,44,11.90
2010,08,21,00,45,11.90
2010,08,21,00,46,11.90
2010,08,21,00,47,11.90
2010,08,21,00,48,11.90
2010,08,21,00,49,11.90
2010,08,21,00,50,11.90
2010,08,21,00,51,11.90
2010,08,21,00,52,11.90
2010,08,21,00,53,11.90
2010,08,21,00,54,11.80
2010,08,21,00,55,11.80
2010,08,21,00,56,11.80
2010,08,21,00,57,11.80
2010,08,21,00,58,11.80
2010,08,21,00,59,11.80
2010,08,21,01,00,11.80
2010,08,21,01,01,11.80
2010,08,21,01,02,11.80
2010,08,21,01,03,11.80
2010,08,21,01,04,11.70
2010,08,21,01,05,11.70
2010,08,21,01,06,11.70
2010,08,21,01,07,11.70
2010,08,21,01,08,11.70
2010,08,21,01,09,11.70
2010,08,21,01,10,11.70
2010,08,21,01,11,11.60
2010,08,21,01,12,11.60
2010,08,21,01,13,11.60
2010,08,21,01,14,11.60
2010,08,21,01,15,11.60
2010,08,21,01,16,11.60
2010,08,21,01,17,11.60
2010,08,21,01,18,11.60
2010,08,21,01,19,11.60
2010,08,21,01,20,11.60
2010,08,21,01,21,11.60
2010,08,21,01,22,11.60
2010,08,21,01,23,11.60
2010,08,21,01,24,11.60
2010,08,21,01,25,11.60
2010,08,21,01,26,11.60
2010,08,21,01,27,11.50
2010,08,21,01,28,11.40
2010,08,21,01,29,11.40
2010,08,21,01,30,11.40
2010,08,21,01,31,11.40
2010,08,21,01,32,11.40
2010,08,21,01,33,11.40
2010,08,21,01,34,11.50
2010,08,21,01,35,11.60
2010,08,21,01,36,11.60
2010,08,21,01,37,11.60
2010,08,21,01,38,11.60
2010,08,21,01,39,11.60
2010,08,21,01,40,11.60
2010,08,21,01,41,11.60
2010,08,21,01,42,11.60
2010,08,21,01,43,11.50
2010,08,21,01,44,11.40
2010,08,21,01,45,11.40
2010,08,21,01,46,11.40
2010,08,21,01,47,11.40
2010,08,21,01,48,11.40
2010,08,21,01,49,11.40
2010,08,21,01,50,11.40
2010,08,21,01,51,11.40
2010,08,21,01,52,11.30
2010,08,21,01,53,11.30
2010,08,21,01,54,11.30
2010,08,21,01,55,11.30
2010,08,21,01,56,11.20
2010,08,21,01,57,11.20
2010,08,21,01,58,11.20
2010,08,21,01,59,11.20
2010,08,21,02,00,11.10
2010,08,21,02,01,11.10
2010,08,21,02,02,11.10
2010,08,21,02,03,11.10
2010,08,21,02,04,11.10
2010,08,21,02,05,11.10
2010,08,21,02,06,11.10
2010,08,21,02,07,11.10
2010,08,21,02,08,11.10
2010,08,21,02,09,11.00
2010,08,21,02,10,10.90
2010,08,21,02,11,10.90
2010,08,21,02,12,10.90
2010,08,21,02,13,10.90
2010,08,21,02,14,10.90
2010,08,21,02,15,10.90
2010,08,21,02,16,10.90
2010,08,21,02,17,10.90
2010,08,21,02,18,10.90
2010,08,21,02,19,10.90
2010,08,21,02,20,10.90
2010,08,21,02,21,10.90
2010,08,21,02,22,10.90
2010,08,21,02,23,10.90
2010,08,21,02,24,10.90
2010,08,21,02,25,10.90
2010,08,21,02,26,10.90
2010,08,21,02,27,10.90
2010,08,21,02,28,10.80
2010,08,21,02,29,10.80
2010,08,21,02,30,10.80
2010,08,21,02,31,10.80
2010,08,21,02,32,10.70
2010,08,21,02,33,10.70
2010,08,21,02,34,10.70
2010,08,21,02,35,10.70
2010,08,21,02,36,10.60
2010,08,21,02,37,10.60
2010,08,21,02,38,10.60
2010,08,21,02,39,10.60
2010,08,21,02,40,10.60
2010,08,21,02,41,10.60
2010,08,21,02,42,10.60
2010,08,21,02,43,10.60
2010,08,21,02,44,10.60
2010,08,21,02,45,10.60
2010,08,21,02,46,10.60
2010,08,21,02,47,10.60
2010,08,21,02,48,10.60
2010,08,21,02,49,10.60
2010,08,21,02,50,10.60
2010,08,21,02,51,10.60
2010,08,21,02,52,10.60
2010,08,21,02,53,10.60
2010,08,21,02,54,10.60
2010,08,21,02,55,10.60
2010,08,21,02,56,10.60
2010,08,21,02,57,10.60
2010,08,21,02,58,10.60
2010,08,21,02,59,10.50
2010,08,21,03,00,10.40
2010,08,21,03,01,10.40
2010,08,21,03,02,10.40
2010,08,21,03,03,10.40
2010,08,21,03,04,10.40
2010,08,21,03,05,10.40
2010,08,21,03,06,10.40
2010,08,21,03,07,10.40
2010,08,21,03,08,10.40
2010,08,21,03,09,10.40
2010,08,21,03,10,10.40
2010,08,21,03,11,10.40
2010,08,21,03,12,10.40
2010,08,21,03,13,10.40
2010,08,21,03,14,10.40
2010,08,21,03,15,10.40
2010,08,21,03,16,10.40
2010,08,21,03,17,10.30
2010,08,21,03,18,10.30
2010,08,21,03,19,10.30
2010,08,21,03,20,10.30
2010,08,21,03,21,10.30
2010,08,21,03,22,10.20
2010,08,21,03,23,10.20
2010,08,21,03,24,10.20
2010,08,21,03,25,10.10
2010,08,21,03,26,10.10
2010,08,21,03,27,10.10
2010,08,21,03,28,10.10
2010,08,21,03,29,10.10
2010,08,21,03,30,10.10
2010,08,21,03,31,10.10
2010,08,21,03,32,10.10
2010,08,21,03,33,10.10
2010,08,21,03,34,10.10
2010,08,21,03,35,10.10
2010,08,21,03,36,10.00
2010,08,21,03,37,9.90
2010,08,21,03,38,9.90
2010,08,21,03,39,9.90
2010,08,21,03,40,9.90
2010,08,21,03,41,9.90
2010,08,21,03,42,9.90
2010,08,21,03,43,9.90
2010,08,21,03,44,9.90
2010,08,21,03,45,9.90
2010,08,21,03,46,9.90
2010,08,21,03,47,9.90
2010,08,21,03,48,9.90
2010,08,21,03,49,9.90
2010,08,21,03,50,9.90
2010,08,21,03,51,9.90
2010,08,21,03,52,9.90
2010,08,21,03,53,9.90
2010,08,21,03,54,9.90
2010,08,21,03,55,9.90
2010,08,21,03,56,9.90
2010,08,21,03,57,9.80
2010,08,21,03,58,9.80
2010,08,21,03,59,9.80
2010,08,21,04,00,9.80
2010,08,21,04,01,9.80
2010,08,21,04,02,9.80
2010,08,21,04,03,9.80
2010,08,21,04,04,9.70
2010,08,21,04,05,9.70
2010,08,21,04,06,9.70
2010,08,21,04,07,9.70
2010,08,21,04,08,9.70
2010,08,21,04,09,9.70
2010,08,21,04,10,9.70
2010,08,21,04,11,9.70
2010,08,21,04,12,9.70
2010,08,21,04,13,9.70
2010,08,21,04,14,9.70
2010,08,21,04,15,9.70
2010,08,21,04,16,9.70
2010,08,21,04,17,9.70
2010,08,21,04,18,9.70
2010,08,21,04,19,9.60
2010,08,21,04,20,9.60
2010,08,21,04,21,9.60
2010,08,21,04,22,9.60
2010,08,21,04,23,9.50
2010,08,21,04,24,9.50
2010,08,21,04,25,9.50
2010,08,21,04,26,9.50
2010,08,21,04,27,9.50
2010,08,21,04,28,9.40
2010,08,21,04,29,9.40
2010,08,21,04,30,9.40
2010,08,21,04,31,9.40
2010,08,21,04,32,9.40
2010,08,21,04,33,9.30
2010,08,21,04,34,9.30
2010,08,21,04,35,9.30
2010,08,21,04,36,9.30
2010,08,21,04,37,9.30
2010,08,21,04,38,9.30
2010,08,21,04,39,9.30
2010,08,21,04,40,9.30
2010,08,21,04,41,9.30
2010,08,21,04,42,9.30
2010,08,21,04,43,9.30
2010,08,21,04,44,9.30
2010,08,21,04,45,9.40
2010,08,21,04,46,9.40
2010,08,21,04,47,9.40
2010,08,21,04,48,9.40
2010,08,21,04,49,9.40
2010,08,21,04,50,9.40
2010,08,21,04,51,9.40
2010,08,21,04,52,9.40
2010,08,21,04,53,9.30
2010,08,21,04,54,9.30
2010,08,21,04,55,9.30
2010,08,21,04,56,9.30
2010,08,21,04,57,9.20
2010,08,21,04,58,9.20
2010,08,21,04,59,9.20
2010,08,21,05,00,9.20
2010,08,21,05,01,9.20
2010,08,21,05,02,9.20
2010,08,21,05,03,9.10
2010,08,21,05,04,9.10
2010,08,21,05,05,9.10
2010,08,21,05,06,9.10
2010,08,21,05,07,9.00
2010,08,21,05,08,9.00
2010,08,21,05,09,9.00
2010,08,21,05,10,9.00
2010,08,21,05,11,9.10
2010,08,21,05,12,9.10
2010,08,21,05,13,9.10
2010,08,21,05,14,9.10
2010,08,21,05,15,9.10
2010,08,21,05,16,9.10
2010,08,21,05,17,9.10
2010,08,21,05,18,9.10
2010,08,21,05,19,9.10
2010,08,21,05,20,9.10
2010,08,21,05,21,9.10
2010,08,21,05,22,9.10
2010,08,21,05,23,9.10
2010,08,21,05,24,9.10
2010,08,21,05,25,9.10
2010,08,21,05,26,9.10
2010,08,21,05,27,9.20
2010,08,21,05,28,9.20
2010,08,21,05,29,9.20
2010,08,21,05,30,9.20
2010,08,21,05,31,9.20
2010,08,21,05,32,9.20
2010,08,21,05,33,9.20
2010,08,21,05,34,9.20
2010,08,21,05,35,9.20
2010,08,21,05,36,9.20
2010,08,21,05,37,9.20
2010,08,21,05,38,9.20
2010,08,21,05,39,9.20
2010,08,21,05,40,9.20
2010,08,21,05,41,9.20
2010,08,21,05,42,9.20
2010,08,21,05,43,9.20
2010,08,21,05,44,9.20
2010,08,21,05,45,9.20
2010,08,21,05,46,9.20
2010,08,21,05,47,9.10
2010,08,21,05,48,9.10
2010,08,21,05,49,9.10
2010,08,21,05,50,9.10
2010,08,21,05,51,9.00
2010,08,21,05,52,9.00
2010,08,21,05,53,9.00
2010,08,21,05,54,9.00
2010,08,21,05,55,9.00
2010,08,21,05,56,9.00
2010,08,21,05,57,9.00
2010,08,21,05,58,9.00
2010,08,21,05,59,9.10
2010,08,21,06,00,9.10
2010,08,21,06,01,9.10
2010,08,21,06,02,9.10
2010,08,21,06,03,9.10
2010,08,21,06,04,9.10
2010,08,21,06,05,9.10
2010,08,21,06,06,9.00
2010,08,21,06,07,9.00
2010,08,21,06,08,9.10
2010,08,21,06,09,9.10
2010,08,21,06,10,9.10
2010,08,21,06,11,9.10
2010,08,21,06,12,9.10
2010,08,21,06,13,9.10
2010,08,21,06,14,9.10
2010,08,21,06,15,9.10
2010,08,21,06,16,9.10
2010,08,21,06,17,9.10
2010,08,21,06,18,9.00
2010,08,21,06,19,9.00
2010,08,21,06,20,9.00
2010,08,21,06,21,9.00
2010,08,21,06,22,9.00
2010,08,21,06,23,9.00
2010,08,21,06,24,9.00
2010,08,21,06,25,9.00
2010,08,21,06,26,9.00
2010,08,21,06,27,9.00
2010,08,21,06,28,9.00
2010,08,21,06,29,9.00
2010,08,21,06,30,9.00
2010,08,21,06,31,9.00
2010,08,21,06,32,9.00
2010,08,21,06,33,9.00
2010,08,21,06,34,9.00
2010,08,21,06,35,9.00
2010,08,21,06,36,9.00
2010,08,21,06,37,9.00
2010,08,21,06,38,9.00
2010,08,21,06,39,9.00
2010,08,21,06,40,9.00
2010,08,21,06,41,9.00
2010,08,21,06,42,9.00
2010,08,21,06,43,9.00
2010,08,21,06,44,9.00
2010,08,21,06,45,9.00
2010,08,21,06,46,9.00
2010,08,21,06,47,9.00
2010,08,21,06,48,9.00
2010,08,21,06,49,9.00
2010,08,21,06,50,9.10
2010,08,21,06,51,9.10
2010,08,21,06,52,9.10
2010,08,21,06,53,9.10
2010,08,21,06,54,9.10
2010,08,21,06,55,9.10
2010,08,21,06,56,9.10
2010,08,21,06,57,9.10
2010,08,21,06,58,9.10
2010,08,21,06,59,9.10
2010,08,21,07,00,9.10
2010,08,21,07,01,9.10
2010,08,21,07,02,9.10
2010,08,21,07,03,9.10
2010,08,21,07,04,9.10
2010,08,21,07,05,9.10
2010,08,21,07,06,9.20
2010,08,21,07,07,9.20
2010,08,21,07,08,9.20
2010,08,21,07,09,9.20
2010,08,21,07,10,9.30
2010,08,21,07,11,9.30
2010,08,21,07,12,9.40
2010,08,21,07,13,9.40
2010,08,21,07,14,9.40
2010,08,21,07,15,9.50
2010,08,21,07,16,9.50
2010,08,21,07,17,9.50
2010,08,21,07,18,9.60
2010,08,21,07,19,9.60
2010,08,21,07,20,9.70
2010,08,21,07,21,9.70
2010,08,21,07,22,9.80
2010,08,21,07,23,9.90
2010,08,21,07,24,9.90
2010,08,21,07,25,10.00
2010,08,21,07,26,10.10
2010,08,21,07,27,10.10
2010,08,21,07,28,10.20
2010,08,21,07,29,10.20
2010,08,21,07,30,10.30
2010,08,21,07,31,10.40
2010,08,21,07,32,10.50
2010,08,21,07,33,10.60
2010,08,21,07,34,10.70
2010,08,21,07,35,10.80
2010,08,21,07,36,10.80
2010,08,21,07,37,10.90
2010,08,21,07,38,10.90
2010,08,21,07,39,11.00
2010,08,21,07,40,11.10
2010,08,21,07,41,11.10
2010,08,21,07,42,11.10
2010,08,21,07,43,11.10
2010,08,21,07,44,11.20
2010,08,21,07,45,11.20
2010,08,21,07,46,11.30
2010,08,21,07,47,11.30
2010,08,21,07,48,11.40
2010,08,21,07,49,11.40
2010,08,21,07,50,11.50
2010,08,21,07,51,11.60
2010,08,21,07,52,11.60
2010,08,21,07,53,11.70
2010,08,21,07,54,11.80
2010,08,21,07,55,11.90
2010,08,21,07,56,12.00
2010,08,21,07,57,12.00
2010,08,21,07,58,12.10
2010,08,21,07,59,12.10
2010,08,21,08,00,12.20
2010,08,21,08,01,12.20
2010,08,21,08,02,12.30
2010,08,21,08,03,12.30
2010,08,21,08,04,12.30
2010,08,21,08,05,12.30
2010,08,21,08,06,12.40
2010,08,21,08,07,12.40
2010,08,21,08,08,12.40
2010,08,21,08,09,12.50
2010,08,21,08,10,12.50
2010,08,21,08,11,12.50
2010,08,21,08,12,12.60
2010,08,21,08,13,12.60
2010,08,21,08,14,12.70
2010,08,21,08,15,12.70
2010,08,21,08,16,12.80
2010,08,21,08,17,12.90
2010,08,21,08,18,13.00
2010,08,21,08,19,13.10
2010,08,21,08,20,13.10
2010,08,21,08,21,13.20
2010,08,21,08,22,13.30
2010,08,21,08,23,13.40
2010,08,21,08,24,13.50
2010,08,21,08,25,13.60
2010,08,21,08,26,13.70
2010,08,21,08,27,13.80
2010,08,21,08,28,13.80
2010,08,21,08,29,13.90
2010,08,21,08,30,14.00
2010,08,21,08,31,14.10
2010,08,21,08,32,14.20
2010,08,21,08,33,14.40
2010,08,21,08,34,14.50
2010,08,21,08,35,14.60
2010,08,21,08,36,14.70
2010,08,21,08,37,14.80
2010,08,21,08,38,14.80
2010,08,21,08,39,14.90
2010,08,21,08,40,14.90
2010,08,21,08,41,15.00
2010,08,21,08,42,15.10
2010,08,21,08,43,15.20
2010,08,21,08,44,15.30
2010,08,21,08,45,15.30
2010,08,21,08,46,15.40
2010,08,21,08,47,15.50
2010,08,21,08,48,15.60
2010,08,21,08,49,15.70
2010,08,21,08,50,15.80
2010,08,21,08,51,15.80
2010,08,21,08,52,15.80
2010,08,21,08,53,15.80
2010,08,21,08,54,15.80
2010,08,21,08,55,15.80
2010,08,21,08,56,15.80
2010,08,21,08,57,15.80
2010,08,21,08,58,15.80
2010,08,21,08,59,15.80
2010,08,21,09,00,15.90
2010,08,21,09,01,16.00
2010,08,21,09,02,16.10
2010,08,21,09,03,16.20
2010,08,21,09,04,16.20
2010,08,21,09,05,16.30
2010,08,21,09,06,16.40
2010,08,21,09,07,16.50
2010,08,21,09,08,16.60
2010,08,21,09,09,16.70
2010,08,21,09,10,16.70
2010,08,21,09,11,16.80
2010,08,21,09,12,16.80
2010,08,21,09,13,16.80
2010,08,21,09,14,16.70
2010,08,21,09,15,16.70
2010,08,21,09,16,16.70
2010,08,21,09,17,16.70
2010,08,21,09,18,16.80
2010,08,21,09,19,16.80
2010,08,21,09,20,16.90
2010,08,21,09,21,16.90
2010,08,21,09,22,17.00
2010,08,21,09,23,17.10
2010,08,21,09,24,17.20
2010,08,21,09,25,17.30
2010,08,21,09,26,17.30
2010,08,21,09,27,17.30
2010,08,21,09,28,17.20
2010,08,21,09,29,17.10
2010,08,21,09,30,17.00
2010,08,21,09,31,17.00
2010,08,21,09,32,16.90
2010,08,21,09,33,16.90
2010,08,21,09,34,16.90
2010,08,21,09,35,16.90
2010,08,21,09,36,17.00
2010,08,21,09,37,17.00
2010,08,21,09,38,17.00
2010,08,21,09,39,17.10
2010,08,21,09,40,17.00
2010,08,21,09,41,17.00
2010,08,21,09,42,17.00
2010,08,21,09,43,17.00
2010,08,21,09,44,17.00
2010,08,21,09,45,17.00
2010,08,21,09,46,17.00
2010,08,21,09,47,17.00
2010,08,21,09,48,17.00
2010,08,21,09,49,17.00
2010,08,21,09,50,17.00
2010,08,21,09,51,16.90
2010,08,21,09,52,16.80
2010,08,21,09,53,16.80
2010,08,21,09,54,16.80
2010,08,21,09,55,16.70
2010,08,21,09,56,16.70
2010,08,21,09,57,16.70
2010,08,21,09,58,16.70
2010,08,21,09,59,16.70
2010,08,21,10,00,16.80
2010,08,21,10,01,16.90
2010,08,21,10,02,16.90
2010,08,21,10,03,17.00
2010,08,21,10,04,17.00
2010,08,21,10,05,16.90
2010,08,21,10,06,16.80
2010,08,21,10,07,16.70
2010,08,21,10,08,16.70
2010,08,21,10,09,16.60
2010,08,21,10,10,16.60
2010,08,21,10,11,16.60
2010,08,21,10,12,16.60
2010,08,21,10,13,16.60
2010,08,21,10,14,16.70
2010,08,21,10,15,16.70
2010,08,21,10,16,16.70
2010,08,21,10,17,16.70
2010,08,21,10,18,16.80
2010,08,21,10,19,16.90
2010,08,21,10,20,17.00
2010,08,21,10,21,17.00
2010,08,21,10,22,17.00
2010,08,21,10,23,17.10
2010,08,21,10,24,17.10
2010,08,21,10,25,17.10
2010,08,21,10,26,17.20
2010,08,21,10,27,17.30
2010,08,21,10,28,17.40
2010,08,21,10,29,17.40
2010,08,21,10,30,17.40
2010,08,21,10,31,17.40
2010,08,21,10,32,17.50
2010,08,21,10,33,17.50
2010,08,21,10,34,17.50
2010,08,21,10,35,17.50
2010,08,21,10,36,17.50
2010,08,21,10,37,17.50
2010,08,21,10,38,17.50
2010,08,21,10,39,17.60
2010,08,21,10,40,17.70
2010,08,21,10,41,17.80
2010,08,21,10,42,17.80
2010,08,21,10,43,17.90
2010,08,21,10,44,18.00
2010,08,21,10,45,18.10
2010,08,21,10,46,18.20
2010,08,21,10,47,18.20
2010,08,21,10,48,18.30
2010,08,21,10,49,18.40
2010,08,21,10,50,18.40
2010,08,21,10,51,18.40
2010,08,21,10,52,18.30
2010,08,21,10,53,18.40
2010,08,21,10,54,18.40
2010,08,21,10,55,18.40
2010,08,21,10,56,18.50
2010,08,21,10,57,18.50
2010,08,21,10,58,18.60
2010,08,21,10,59,18.60
2010,08,21,11,00,18.70
2010,08,21,11,01,18.80
2010,08,21,11,02,18.90
2010,08,21,11,03,18.80
2010,08,21,11,04,18.70
2010,08,21,11,05,18.70
2010,08,21,11,06,18.70
2010,08,21,11,07,18.70
2010,08,21,11,08,18.70
2010,08,21,11,09,18.70
2010,08,21,11,10,18.80
2010,08,21,11,11,18.80
2010,08,21,11,12,18.70
2010,08,21,11,13,18.70
2010,08,21,11,14,18.80
2010,08,21,11,15,18.80
2010,08,21,11,16,18.80
2010,08,21,11,17,18.80
2010,08,21,11,18,18.90
2010,08,21,11,19,18.90
2010,08,21,11,20,18.90
2010,08,21,11,21,18.90
2010,08,21,11,22,18.90
2010,08,21,11,23,18.90
2010,08,21,11,24,19.00
2010,08,21,11,25,19.10
2010,08,21,11,26,19.10
2010,08,21,11,27,19.00
2010,08,21,11,28,18.90
2010,08,21,11,29,18.90
2010,08,21,11,30,18.90
2010,08,21,11,31,18.90
2010,08,21,11,32,18.90
2010,08,21,11,33,18.90
2010,08,21,11,34,18.90
2010,08,21,11,35,19.10
2010,08,21,11,36,19.10
2010,08,21,11,37,19.10
2010,08,21,11,38,19.10
2010,08,21,11,39,18.90
2010,08,21,11,40,18.80
2010,08,21,11,41,18.50
2010,08,21,11,42,18.30
2010,08,21,11,43,18.20
2010,08,21,11,44,18.20
2010,08,21,11,45,18.20
2010,08,21,11,46,18.20
2010,08,21,11,47,18.20
2010,08,21,11,48,18.20
2010,08,21,11,49,18.20
2010,08,21,11,50,18.20
2010,08,21,11,51,18.20
2010,08,21,11,52,18.30
2010,08,21,11,53,18.30
2010,08,21,11,54,18.30
2010,08,21,11,55,18.30
2010,08,21,11,56,18.30
2010,08,21,11,57,18.30
2010,08,21,11,58,18.30
2010,08,21,11,59,18.30
2010,08,21,12,00,18.20
2010,08,21,12,01,18.20
2010,08,21,12,02,18.20
2010,08,21,12,03,18.20
2010,08,21,12,04,18.30
2010,08,21,12,05,18.40
2010,08,21,12,06,18.40
2010,08,21,12,07,18.40
2010,08,21,12,08,18.60
2010,08,21,12,09,18.60
2010,08,21,12,10,18.70
2010,08,21,12,11,18.70
2010,08,21,12,12,18.80
2010,08,21,12,13,18.90
2010,08,21,12,14,18.90
2010,08,21,12,15,19.00
2010,08,21,12,16,19.10
2010,08,21,12,17,19.10
2010,08,21,12,18,19.10
2010,08,21,12,19,19.10
2010,08,21,12,20,19.20
2010,08,21,12,21,19.30
2010,08,21,12,22,19.30
2010,08,21,12,23,19.30
2010,08,21,12,24,19.30
2010,08,21,12,25,19.30
2010,08,21,12,26,19.30
2010,08,21,12,27,19.20
2010,08,21,12,28,19.10
2010,08,21,12,29,19.10
2010,08,21,12,30,19.10
2010,08,21,12,31,19.10
2010,08,21,12,32,19.10
2010,08,21,12,33,19.10
2010,08,21,12,34,19.10
2010,08,21,12,35,19.10
2010,08,21,12,36,18.90
2010,08,21,12,37,18.90
2010,08,21,12,38,19.00
2010,08,21,12,39,19.10
2010,08,21,12,40,19.10
2010,08,21,12,41,19.20
2010,08,21,12,42,19.30
2010,08,21,12,43,19.30
2010,08,21,12,44,19.40
2010,08,21,12,45,19.50
2010,08,21,12,46,19.60
2010,08,21,12,47,19.60
2010,08,21,12,48,19.70
2010,08,21,12,49,19.70
2010,08,21,12,50,19.60
2010,08,21,12,51,19.50
2010,08,21,12,52,19.40
2010,08,21,12,53,19.40
2010,08,21,12,54,19.30
2010,08,21,12,55,19.20
2010,08,21,12,56,19.20
2010,08,21,12,57,19.20
2010,08,21,12,58,19.20
2010,08,21,12,59,19.10
2010,08,21,13,00,19.10
2010,08,21,13,01,19.10
2010,08,21,13,02,19.00
2010,08,21,13,03,19.10
2010,08,21,13,04,19.10
2010,08,21,13,05,19.10
2010,08,21,13,06,19.10
2010,08,21,13,07,19.10
2010,08,21,13,08,19.10
2010,08,21,13,09,19.10
2010,08,21,13,10,19.10
2010,08,21,13,11,19.10
2010,08,21,13,12,19.10
2010,08,21,13,13,19.20
2010,08,21,13,14,19.20
2010,08,21,13,15,19.20
2010,08,21,13,16,19.10
2010,08,21,13,17,19.20
2010,08,21,13,18,19.30
2010,08,21,13,19,19.40
2010,08,21,13,20,19.40
2010,08,21,13,21,19.40
2010,08,21,13,22,19.40
2010,08,21,13,23,19.40
2010,08,21,13,24,19.40
2010,08,21,13,25,19.40
2010,08,21,13,26,19.40
2010,08,21,13,27,19.40
2010,08,21,13,28,19.40
2010,08,21,13,29,19.40
2010,08,21,13,30,19.30
2010,08,21,13,31,19.30
2010,08,21,13,32,19.40
2010,08,21,13,33,19.40
2010,08,21,13,34,19.50
2010,08,21,13,35,19.50
2010,08,21,13,36,19.50
2010,08,21,13,37,19.60
2010,08,21,13,38,19.70
2010,08,21,13,39,19.70
2010,08,21,13,40,19.70
2010,08,21,13,41,19.80
2010,08,21,13,42,19.80
2010,08,21,13,43,19.80
2010,08,21,13,44,19.90
2010,08,21,13,45,19.90
2010,08,21,13,46,19.90
2010,08,21,13,47,19.90
2010,08,21,13,48,19.90
2010,08,21,13,49,19.90
2010,08,21,13,50,19.90
2010,08,21,13,51,19.90
2010,08,21,13,52,19.90
2010,08,21,13,53,19.90
2010,08,21,13,54,20.10
2010,08,21,13,55,20.10
2010,08,21,13,56,20.20
2010,08,21,13,57,20.20
2010,08,21,13,58,20.20
2010,08,21,13,59,20.20
2010,08,21,14,00,20.20
2010,08,21,14,01,20.20
2010,08,21,14,02,20.10
2010,08,21,14,03,20.10
2010,08,21,14,04,20.10
2010,08,21,14,05,20.20
2010,08,21,14,06,20.20
2010,08,21,14,07,20.20
2010,08,21,14,08,20.20
2010,08,21,14,09,20.00
2010,08,21,14,10,19.90
2010,08,21,14,11,19.90
2010,08,21,14,12,19.90
2010,08,21,14,13,19.90
2010,08,21,14,14,20.00
2010,08,21,14,15,20.10
2010,08,21,14,16,20.20
2010,08,21,14,17,20.20
2010,08,21,14,18,20.20
2010,08,21,14,19,20.30
2010,08,21,14,20,20.30
2010,08,21,14,21,20.40
2010,08,21,14,22,20.50
2010,08,21,14,23,20.60
2010,08,21,14,24,20.70
2010,08,21,14,25,20.80
2010,08,21,14,26,20.90
2010,08,21,14,27,21.00
2010,08,21,14,28,21.10
2010,08,21,14,29,21.10
2010,08,21,14,30,21.20
2010,08,21,14,31,21.20
2010,08,21,14,32,21.30
2010,08,21,14,33,21.40
2010,08,21,14,34,21.50
2010,08,21,14,35,21.60
2010,08,21,14,36,21.70
2010,08,21,14,37,21.80
2010,08,21,14,38,21.90
2010,08,21,14,39,22.00
2010,08,21,14,40,22.00
2010,08,21,14,41,22.10
2010,08,21,14,42,22.10
2010,08,21,14,43,22.20
2010,08,21,14,44,22.30
2010,08,21,14,45,22.40
2010,08,21,14,46,22.50
2010,08,21,14,47,22.60
2010,08,21,14,48,22.60
2010,08,21,14,49,22.60
2010,08,21,14,50,22.50
2010,08,21,14,51,22.40
2010,08,21,14,52,22.40
2010,08,21,14,53,22.40
2010,08,21,14,54,22.50
2010,08,21,14,55,22.50
2010,08,21,14,56,22.50
2010,08,21,14,57,22.50
2010,08,21,14,58,22.60
2010,08,21,14,59,22.50
2010,08,21,15,00,22.60
2010,08,21,15,01,22.60
2010,08,21,15,02,22.60
2010,08,21,15,03,22.60
2010,08,21,15,04,22.60
2010,08,21,15,05,22.50
2010,08,21,15,06,22.40
2010,08,21,15,07,22.30
2010,08,21,15,08,22.20
2010,08,21,15,09,22.10
2010,08,21,15,10,22.20
2010,08,21,15,11,22.20
2010,08,21,15,12,22.20
2010,08,21,15,13,22.20
2010,08,21,15,14,22.30
2010,08,21,15,15,22.30
2010,08,21,15,16,22.30
2010,08,21,15,17,22.30
2010,08,21,15,18,22.40
2010,08,21,15,19,22.40
2010,08,21,15,20,22.40
2010,08,21,15,21,22.50
2010,08,21,15,22,22.50
2010,08,21,15,23,22.60
2010,08,21,15,24,22.60
2010,08,21,15,25,22.60
2010,08,21,15,26,22.60
2010,08,21,15,27,22.60
2010,08,21,15,28,22.60
2010,08,21,15,29,22.60
2010,08,21,15,30,22.50
2010,08,21,15,31,22.50
2010,08,21,15,32,22.40
2010,08,21,15,33,22.40
2010,08,21,15,34,22.40
2010,08,21,15,35,22.40
2010,08,21,15,36,22.40
2010,08,21,15,37,22.40
2010,08,21,15,38,22.50
2010,08,21,15,39,22.40
2010,08,21,15,40,22.40
2010,08,21,15,41,22.30
2010,08,21,15,42,22.30
2010,08,21,15,43,22.30
2010,08,21,15,44,22.20
2010,08,21,15,45,22.20
2010,08,21,15,46,22.20
2010,08,21,15,47,22.20
2010,08,21,15,48,22.20
2010,08,21,15,49,22.20
2010,08,21,15,50,22.20
2010,08,21,15,51,22.10
2010,08,21,15,52,22.10
2010,08,21,15,53,22.10
2010,08,21,15,54,22.10
2010,08,21,15,55,22.20
2010,08,21,15,56,22.20
2010,08,21,15,57,22.20
2010,08,21,15,58,22.20
2010,08,21,15,59,22.30
2010,08,21,16,00,22.30
2010,08,21,16,01,22.30
2010,08,21,16,02,22.30
2010,08,21,16,03,22.30
2010,08,21,16,04,22.30
2010,08,21,16,05,22.30
2010,08,21,16,06,22.30
2010,08,21,16,07,22.30
2010,08,21,16,08,22.30
2010,08,21,16,09,22.30
2010,08,21,16,10,22.40
2010,08,21,16,11,22.40
2010,08,21,16,12,22.40
2010,08,21,16,13,22.40
2010,08,21,16,14,22.40
2010,08,21,16,15,22.30
2010,08,21,16,16,22.30
2010,08,21,16,17,22.30
2010,08,21,16,18,22.40
2010,08,21,16,19,22.40
2010,08,21,16,20,22.40
2010,08,21,16,21,22.40
2010,08,21,16,22,22.40
2010,08,21,16,23,22.40
2010,08,21,16,24,22.40
2010,08,21,16,25,22.40
2010,08,21,16,26,22.40
2010,08,21,16,27,22.40
2010,08,21,16,28,22.50
2010,08,21,16,29,22.50
2010,08,21,16,30,22.50
2010,08,21,16,31,22.50
2010,08,21,16,32,22.50
2010,08,21,16,33,22.50
2010,08,21,16,34,22.50
2010,08,21,16,35,22.50
2010,08,21,16,36,22.50
2010,08,21,16,37,22.60
2010,08,21,16,38,22.60
2010,08,21,16,39,22.60
2010,08,21,16,40,22.60
2010,08,21,16,41,22.50
2010,08,21,16,42,22.50
2010,08,21,16,43,22.50
2010,08,21,16,44,22.50
2010,08,21,16,45,22.50
2010,08,21,16,46,22.40
2010,08,21,16,47,22.30
2010,08,21,16,48,22.30
2010,08,21,16,49,22.30
2010,08,21,16,50,22.30
2010,08,21,16,51,22.30
2010,08,21,16,52,22.20
2010,08,21,16,53,22.20
2010,08,21,16,54,22.20
2010,08,21,16,55,22.20
2010,08,21,16,56,22.20
2010,08,21,16,57,22.20
2010,08,21,16,58,22.10
2010,08,21,16,59,22.10
2010,08,21,17,00,22.10
2010,08,21,17,01,22.20
2010,08,21,17,02,22.20
2010,08,21,17,03,22.20
2010,08,21,17,04,22.30
2010,08,21,17,05,22.30
2010,08,21,17,06,22.30
2010,08,21,17,07,22.30
2010,08,21,17,08,22.30
2010,08,21,17,09,22.30
2010,08,21,17,10,22.30
2010,08,21,17,11,22.30
2010,08,21,17,12,22.30
2010,08,21,17,13,22.20
2010,08,21,17,14,22.20
2010,08,21,17,15,22.10
2010,08,21,17,16,22.10
2010,08,21,17,17,22.20
2010,08,21,17,18,22.20
2010,08,21,17,19,22.30
2010,08,21,17,20,22.30
2010,08,21,17,21,22.30
2010,08,21,17,22,22.40
2010,08,21,17,23,22.40
2010,08,21,17,24,22.40
2010,08,21,17,25,22.30
2010,08,21,17,26,22.30
2010,08,21,17,27,22.30
2010,08,21,17,28,22.40
2010,08,21,17,29,22.40